FW3021 Weather Reports


Display with metric or nautical units.
time (UTC)temp
F
wind
direction
speed
MPH
gust
MPH
rain 1hr
in
rain 24hr
in
rain mn
in
humidity
%
barometer
mb
20260831220556 65 0 1.0 3.0 0.00 0.27 0.26 86 1010.0
20260831215515 65 0 1.0 3.0 0.00 0.27 0.26 86 1010.0
20260831214516 66 0 1.0 4.0 0.00 0.27 0.26 86 1010.0
20260831213515 66 0 1.0 3.0 0.00 0.27 0.26 86 1010.0
20260831212535 66 0.0 0.0 0.00 0.27 0.26 86 1010.0
20260831211517 66 0.0 0.0 0.00 0.27 0.26 87 1010.0
20260831210517 65 0.0 0.0 0.00 0.27 0.26 86 1009.9
20260831205517 65 0.0 0.0 0.00 0.27 0.26 86 1009.9
20260831204517 65 0.0 0.0 0.00 0.27 0.26 85 1009.9
20260831203517 66 0.0 0.0 0.00 0.27 0.26 85 1009.9
20260831202517 67 0.0 0.0 0.00 0.27 0.26 85 1009.8
20260831201537 67 0.0 3.0 0.00 0.27 0.26 86 1009.8
20260831200517 67 0.0 2.0 0.00 0.27 0.26 86 1009.7
20260831195517 67 0 2.0 5.0 0.00 0.27 0.26 86 1009.7
20260831194517 66 0 1.0 3.0 0.00 0.27 0.26 86 1009.8
20260831193518 66 0 2.0 4.0 0.00 0.27 0.26 86 1009.8
20260831192517 66 0 2.0 4.0 0.00 0.27 0.26 87 1009.7
20260831191517 66 0 2.0 4.0 0.00 0.27 0.26 87 1009.5
20260831190517 66 0 2.0 5.0 0.00 0.27 0.26 87 1009.6
20260831185517 66 0 2.0 8.0 0.00 0.27 0.26 87 1009.5
20260831184517 66 0 3.0 8.0 0.00 0.27 0.26 87 1009.5
20260831183517 66 0 2.0 6.0 0.00 0.27 0.26 87 1009.6
20260831182517 66 0 2.0 6.0 0.00 0.27 0.26 87 1009.6
20260831181517 65 0 2.0 5.0 0.00 0.27 0.26 87 1009.6
20260831180517 66 0 3.0 8.0 0.00 0.27 0.26 87 1009.5
20260831175517 66 0 3.0 8.0 0.00 0.27 0.26 88 1009.6
20260831174517 66 0 4.0 9.0 0.00 0.27 0.26 88 1009.5
20260831173517 66 0 3.0 8.0 0.00 0.27 0.26 88 1009.5
20260831172517 66 0 2.0 9.0 0.00 0.27 0.26 88 1009.4
20260831171517 66 0 2.0 6.0 0.00 0.27 0.26 88 1009.5
20260831170517 65 0 2.0 6.0 0.00 0.27 0.26 88 1009.7
20260831165517 66 0 2.0 6.0 0.00 0.27 0.26 88 1009.8
20260831164517 66 0 2.0 5.0 0.00 0.27 0.26 88 1009.6
20260831163537 66 0 1.0 3.0 0.00 0.27 0.26 88 1009.4
20260831162517 66 0 2.0 4.0 0.00 0.27 0.26 88 1009.4
20260831161537 66 0 1.0 5.0 0.00 0.27 0.26 88 1009.4
20260831160517 65 0 2.0 6.0 0.00 0.27 0.26 88 1009.5
20260831155517 65 0 2.0 5.0 0.00 0.27 0.26 88 1009.5
20260831154537 65 0 1.0 4.0 0.00 0.27 0.26 88 1009.6
20260831153517 65 0 2.0 6.0 0.00 0.27 0.26 88 1009.5
20260831152517 64 0 2.0 8.0 0.00 0.27 0.26 88 1009.3
20260831151517 64 0 3.0 6.0 0.00 0.27 0.26 87 1009.5
20260831150517 65 0 3.0 8.0 0.00 0.27 0.26 88 1009.3
20260831145537 65 0 3.0 5.0 0.00 0.27 0.26 88 1009.2
20260831144517 65 0 2.0 6.0 0.00 0.27 0.26 88 1009.0
20260831143516 65 0 1.0 5.0 0.00 0.27 0.26 88 1009.0
20260831142516 65 0 1.0 6.0 0.00 0.27 0.26 88 1009.0
20260831141516 64 0 2.0 6.0 0.00 0.27 0.26 88 1009.0
20260831140517 64 0 3.0 6.0 0.00 0.27 0.26 88 1008.9
20260831135516 65 0 3.0 9.0 0.00 0.27 0.26 88 1009.1
20260831134517 65 0 4.0 10.0 0.00 0.27 0.26 88 1008.7
20260831133517 65 0 3.0 10.0 0.00 0.27 0.26 88 1008.8
20260831132516 65 0 3.0 12.0 0.00 0.27 0.26 88 1008.7
20260831131516 65 0 4.0 10.0 0.00 0.27 0.26 88 1008.7
20260831130516 65 0 3.0 8.0 0.00 0.27 0.26 87 1008.5
20260831125516 65 0 2.0 8.0 0.00 0.27 0.26 87 1008.9
20260831124516 65 0 3.0 9.0 0.01 0.27 0.26 88 1008.6
20260831123516 65 0 2.0 9.0 0.01 0.27 0.26 88 1008.6
20260831122516 65 0 2.0 6.0 0.02 0.27 0.26 88 1008.4
20260831121516 64 0 2.0 5.0 0.02 0.27 0.26 88 1008.3
20260831120516 64 0 2.0 5.0 0.02 0.27 0.26 87 1008.4
20260831115516 64 0 1.0 5.0 0.02 0.27 0.26 88 1008.1
20260831114516 64 68 1.0 3.0 0.01 0.26 0.25 88 1008.4
20260831113516 64 0 1.0 2.0 0.01 0.26 0.25 88 1008.7
20260831112516 64 0 1.0 4.0 0.00 0.25 0.24 88 1009.3
20260831111516 64 0 1.0 3.0 0.00 0.25 0.24 88 1009.3
20260831110556 64 0 2.0 4.0 0.00 0.25 0.24 88 1009.4
20260831105516 64 68 1.0 4.0 0.00 0.25 0.24 88 1009.1
20260831104516 63 0 3.0 7.0 0.00 0.25 0.24 87 1009.3
20260831103516 63 0 2.0 8.0 0.00 0.25 0.24 87 1009.3
20260831102516 63 0 2.0 6.0 0.00 0.25 0.24 87 1009.1
20260831101516 63 0 2.0 10.0 0.00 0.25 0.24 87 1009.2
20260831100516 63 0 4.0 11.0 0.00 0.25 0.24 87 1009.4
20260831095516 63 0 4.0 10.0 0.02 0.25 0.24 87 1008.9
20260831094516 63 0 4.0 13.0 0.04 0.25 0.24 87 1008.7
20260831093516 63 0 4.0 10.0 0.04 0.25 0.24 87 1009.1
20260831092516 63 0 3.0 9.0 0.05 0.25 0.24 87 1009.5
20260831091516 63 0 4.0 12.0 0.06 0.25 0.24 87 1009.7
20260831090516 63 0 4.0 10.0 0.07 0.25 0.24 87 1009.8
20260831085516 63 0 4.0 11.0 0.06 0.23 0.22 87 1009.7
20260831084516 63 0 3.0 9.0 0.04 0.21 0.20 87 1009.9
20260831083516 63 0 5.0 11.0 0.04 0.21 0.20 87 1009.9
20260831082516 62 0 4.0 10.0 0.03 0.20 0.19 87 1009.9
20260831081536 62 0 3.0 9.0 0.02 0.19 0.18 87 1010.5
20260831080516 62 0 4.0 11.0 0.02 0.18 0.17 87 1010.4
20260831075516 62 0 3.0 9.0 0.01 0.17 0.16 87 1010.0
20260831074516 62 0 4.0 11.0 0.01 0.17 0.16 87 1010.0
20260831073516 62 0 4.0 9.0 0.02 0.17 0.16 87 1010.1
20260831072516 62 0 4.0 10.0 0.02 0.17 0.16 87 1010.2
20260831071536 62 0 4.0 13.0 0.02 0.17 0.16 87 1010.4
20260831070516 62 0 4.0 10.0 0.02 0.16 0.15 87 1010.5
20260831065516 62 0 5.0 11.0 0.11 0.16 0.15 87 1010.4
20260831064516 62 0 4.0 12.0 0.15 0.16 0.15 87 1010.7
20260831063516 62 0 3.0 10.0 0.14 0.15 0.14 87 1010.9
20260831062516 62 0 4.0 12.0 0.14 0.15 0.14 87 1010.9
20260831061516 62 0 1.0 6.0 0.14 0.15 0.14 87 1011.8
20260831060516 62 0 4.0 11.0 0.13 0.14 0.13 86 1011.4
20260831055516 62 0 3.0 10.0 0.05 0.05 0.04 86 1011.4
20260831054516 62 0 3.0 10.0 0.01 0.01 0.00 86 1011.4
20260831053516 62 0 3.0 10.0 0.01 0.01 0.00 86 1011.8
20260831052516 62 0 3.0 11.0 0.01 0.01 0.00 86 1012.0
20260831051515 62 0 5.0 14.0 0.01 0.01 0.00 86 1012.0
20260831050516 62 0 3.0 10.0 0.01 0.01 0.00 86 1012.2
20260831045536 62 0 4.0 11.0 0.00 0.00 0.00 85 1012.3
20260831044516 62 0 3.0 8.0 0.00 0.00 0.00 85 1012.4
20260831043536 62 0 4.0 12.0 0.00 0.00 0.00 85 1012.5
20260831042516 62 0 4.0 10.0 0.00 0.00 0.00 84 1012.8
20260831041536 62 0 3.0 9.0 0.00 0.00 0.00 84 1012.9
20260831040516 62 0 4.0 11.0 0.00 0.00 0.00 84 1012.9
20260831035516 62 0 4.0 13.0 0.00 0.00 0.00 83 1013.0
20260831034536 63 0 3.0 9.0 0.00 0.00 0.00 83 1013.0
20260831033516 63 0 4.0 13.0 0.00 0.00 0.00 83 1013.0
20260831032515 63 0 5.0 12.0 0.00 0.00 0.00 83 1013.2
20260831031536 63 0 4.0 11.0 0.00 0.00 0.00 83 1013.1
20260831030515 63 0 3.0 9.0 0.00 0.00 0.00 83 1013.1
20260831025516 63 0 4.0 12.0 0.00 0.00 0.00 82 1013.3
20260831024515 63 0 2.0 8.0 0.00 0.00 0.00 82 1013.0
20260831023516 63 0 4.0 14.0 0.00 0.00 0.00 82 1012.8
20260831022516 63 0 4.0 11.0 0.00 0.00 0.00 82 1012.7
20260831021516 64 0 3.0 15.0 0.00 0.00 0.00 82 1012.7
20260831020516 64 0 3.0 11.0 0.00 0.00 0.00 82 1012.5
20260831015516 64 0 4.0 10.0 0.00 0.00 0.00 82 1012.3
20260831014515 64 0 3.0 12.0 0.00 0.00 0.00 82 1012.4
20260831013515 64 0 4.0 10.0 0.00 0.00 0.00 82 1012.3
20260831012515 64 0 4.0 11.0 0.00 0.00 0.00 82 1012.4
20260831011516 64 0 3.0 10.0 0.00 0.00 0.00 82 1012.6
20260831010516 64 0 3.0 10.0 0.00 0.00 0.00 81 1012.6
20260831005516 65 0 4.0 12.0 0.00 0.00 0.00 81 1012.6
20260831004515 65 0 5.0 10.0 0.00 0.00 0.00 81 1012.7
20260831003538 65 0 5.0 11.0 0.00 0.00 0.00 81 1012.9
20260831002518 65 0 4.0 10.0 0.00 0.00 0.00 81 1013.0
20260831001517 65 0 4.0 12.0 0.00 0.00 0.00 81 1012.8
20260831000517 65 0 4.0 13.0 0.00 0.00 0.00 81 1012.9
20260830235517 65 0 5.0 12.0 0.00 0.00 0.00 81 1012.8
20260830234517 65 0 4.0 14.0 0.00 0.00 0.00 81 1012.9
20260830233517 65 0 2.0 10.0 0.00 0.00 0.00 81 1012.9
20260830232517 65 0 4.0 12.0 0.00 0.00 0.00 81 1012.9
20260830231517 65 0 5.0 13.0 0.00 0.00 0.00 81 1012.9
20260830230517 65 0 4.0 12.0 0.00 0.00 0.00 81 1013.0
20260830225517 65 0 3.0 9.0 0.00 0.00 0.00 81 1013.3
20260830224517 65 0 4.0 10.0 0.00 0.00 0.00 81 1013.2
20260830223517 65 0 4.0 11.0 0.00 0.00 0.00 81 1013.2
20260830222517 65 0 4.0 15.0 0.00 0.00 0.00 81 1013.1
20260830221517 65 0 4.0 10.0 0.00 0.00 0.00 81 1013.6